STARLINK-32652 (62234 NORAD) Tracking and Keplerian Element Data

This shows tracking and keplerian element data for the satellite.

Feedback or suggestion? Click here.




ElementValue
Catalog62234
NameSTARLINK-32652
Epoch Orbit1063
Epoch Day34.95848634
Epoch Year2025
RAAN275.7612
Inclination53.1601
Eccentricity0.0001118
Argument of Perigee110.0431
Mean Anonmoly250.0694
Mean Motion15.39597001
Decay Rate-9.78E-06
L11 62234U 24231S 25034.95848634 -.00000978 00000+0 -14485-4 0 9991
L22 62234 53.1601 275.7612 0001118 110.0431 250.0694 15.39597001 10632



Live tracking and technical data element details for STARLINK-32652 (NORAD 62234). STARLINK-32652 can be tracked NOW for your location showing map with azimuth and elevation plus other details from your city location.







IsCatalogInMostPopularTable: catalog: 62234, numindb: 17
Update: records affected: 1



GetName: 62234 STARLINK-32652

Hit Count: updated at: Sun, 18 May 2025 23:52:38 GMT